星链-4678 (STARLINK-4678 )

导读

STARLINK-4678是美国SpaceX星链互联网卫星星座中的一员,于2022年9月11日发射入轨。星链星座旨在为全球提供低延迟高速互联网接入服务,该卫星和同批次星链卫星一同部署在近地轨道,通过星间链路和地面站组网,服务覆盖包括偏远地区在内的全球区域,推进星链星座的全球服务部署进度。

基本信息
目录编号:
53780
目录名称:
STARLINK-4678
国际标识:
2022-111H
轨道中心:
EARTH
卫星名称:
星链-4678
卫星全名:
星链-4678 (STARLINK-4678 )
卫星状态:
在轨 (已飞行1454 天)
发射日期:
2022-09-11 UTC
国别 :
美国 (US)
星等 :
--
轨道信息
数据来源 国际轨道数据
星历时间: 2026-09-03T21:53:55+0800
13小时前
查看轨道信息
半长轴: 6843.373km
偏心率: 0.0001371
轨道倾角: 53.161°
近地点辐角 82.918°
升交点赤经 192.729°
平近点角 277.197°
近地点: 464.297km
远地点: 466.175km
周期: 93.900分钟
每日圈数: 15.335485
详细信息
固有亮度:
5
最大亮度:
2.5
卫星平台:
Starlink v1.5
覆盖范围:
全球
运营商:
太空探索技术公司
运营商所在国:
美国
制造商(研发单位):
太空探索技术公司
制造商所在国:
美国
使用方式:
暂无
卫星简介
星链(Starlink)计划是由太空探索技术公司(SpaceX)提出的一个巨型低轨卫星互联网星座项目,计划在2019年至2024年间在太空搭建由约1.2万颗卫星组成的“星链”网络,其中1584颗将部署在地球上空550千米处的近地轨道,并从2020年开始工作。该卫星仍在工作。
2D轨道图
3D轨道图
轨道高度分析图
轨道倾角分析图
轨道综合分析图
查看轨道综合分析图